Hourly Data Report for October 25, 2001

SHERBROOKE A
QUEBEC

45°26'00.000" N
71°41'00.000" W
241.40 m
7028124
71610
YSC

Download Data

Hourly Data (October 2001)
Hourly Data Report for October 25, 2001
TIME
LST
Temp Definition
°C
Dew Point Definition
°C
Rel Hum Definition
%
Precip. Amount Definition
mm

Wind Dir Definition
10's deg

Wind Spd Definition
km/h
Visibility Definition
km
Stn Press Definition
kPa
Hmdx Definition


Wind Chill Definition


Weather Definition


00:00 11.5 11.0 97   10 11 8.0 97.69      
01:00 11.6 11.0 96   5 6 6.4 97.62      
02:00 12.1 11.5 96   7 9 8.0 97.54      
03:00 10.5 9.8 95   5 6 4.8 97.45      
04:00 11.0 10.5 97   5 6 6.4 97.38      
05:00 11.2 10.6 96   7 9 6.4 97.29      
06:00 11.8 11.1 95   7 7 8.0 97.19      
07:00 14.3 13.0 92   7 6 19.3 97.06     Mostly Cloudy
08:00 16.9 14.2 84   13 24 24.1 96.96     Mostly Cloudy
09:00 19.1 14.4 74   14 30 24.1 96.82     Mostly Cloudy
10:00 20.5 14.6 69   13 24 24.1 96.68     Mostly Cloudy
11:00 20.2 13.6 66   16 33 19.3 96.57     Cloudy
12:00 11.4 10.5 94   26 32 3.2 96.88     Moderate Rain Showers
13:00 9.8 7.7 87   27 24 16.1 96.92     Rain
14:00 9.6 8.5 93   18 6 24.1 96.95     Rain
15:00 9.0 7.9 93   14 11 24.1 96.98     Mostly Cloudy
16:00 9.4 8.2 92   10 4 24.1 96.98     Mostly Cloudy
17:00 8.8 8.1 95   33 7 15.0 97.08      
18:00 8.5 6.5 87   26 17 15.0 97.22      
19:00 6.8 4.4 85   23 13 15.0 97.25      
20:00 5.8 3.8 87   21 6 15.0 97.26      
21:00 3.8 2.6 92     0 15.0 97.27      
22:00 4.2 2.5 89   23 9 15.0 97.28      
23:00 4.3 2.7 89   21 7 15.0 97.30      

Notes on Data Quality.

Legend

  • E = Estimated
  • M = Missing
  • NA = Not Available*
  • [empty] = Indicates an unobserved value
Date modified: